Regional Weather Roundup
Issued by NWS

Home | Current Version | Previous Version | Graphics & Text | Print | Product List | Glossary On
Versions: 1 2 3 4 5 6 7 8 9 10 11 12 13 14 15 16 17 18 19 20 21 22 23 24 25 26 27 28 29 30 31 32 33 34 35 36 37 38 39 40 41 42 43 44 45 46 47 48 49 50
000
ASUS43 KOAX 220102
RWRNE

WEATHER ROUNDUP FOR NEBRASKA
NATIONAL WEATHER SERVICE OMAHA NE
700 PM CST WED FEB 21 2018

NOTES: SATELLITE DATA IS BEING USED TO AUGMENT CLOUD COVER ABOVE
       12000 FEET.
       "FAIR" INDICATES FEW OR NO CLOUDS BELOW 12,000 FEET WITH NO
       SIGNIFICANT WEATHER AND/OR OBSTRUCTIONS TO VISIBILITY.


NEZ001>004-019>022-054>056-220200-
NEBRASKA PANHANDLE

CITY           SKY/WX    TMP DP  RH WIND       PRES   REMARKS
SCOTTSBLUFF    FAIR      16   9  74 E8        30.19S WCI   5
ALLIANCE       FAIR      16  10  77 S16       30.20R WCI   1
CHADRON        FAIR       5   0  79 CALM      30.24R
GORDON         FAIR      17   7  67 CALM      30.23R
KIMBALL        FAIR      15   9  75 SE3       30.15S
SIDNEY         FAIR      18  10  71 SE10      30.21R WCI   6
$$

NEZ057>060-069>072-079>082-220200-
SOUTHWEST NEBRASKA

CITY           SKY/WX    TMP DP  RH WIND       PRES   REMARKS
NORTH PLATTE   CLOUDY    22  12  65 E8        30.36F WCI  12
IMPERIAL       FAIR      18   9  68 E8        30.30F WCI   8
LEXINGTON      CLOUDY    29   8  42 SE9       30.40F WCI  20
MCCOOK         CLOUDY    27   5  39 SE9       30.37S WCI  18
OGALLALA       FAIR      20  11  67 E8        30.32R WCI  11
$$

NEZ005>010-023>029-035>040-094-220200-
NORTH CENTRAL NEBRASKA

CITY           SKY/WX    TMP DP  RH WIND       PRES   REMARKS
VALENTINE      FAIR      19   8  62 S15       30.35R WCI   5
AINSWORTH      MOCLDY    17   8  70 S9        30.38S WCI   5
BROKEN BOW     CLOUDY    24  10  55 SE8       30.40S WCI  15
O`NEILL        CLOUDY    19  11  70 SE5       30.45S WCI  13
ORD            CLOUDY    23   9  55 SE6       30.45R WCI  16
THEDFORD       FAIR      15   9  75 SE5       30.36S WCI   8
$$

NEZ041-046>049-061>064-073>077-083>087-220200-
SOUTH CENTRAL NEBRASKA

CITY           SKY/WX    TMP DP  RH WIND       PRES   REMARKS
GRAND ISLAND   CLOUDY    26  11  52 E8        30.47F WCI  18
AURORA         MOCLDY    24   9  52 E6        30.47F WCI  17
HASTINGS       CLOUDY    25   4  40 E10       30.45F WCI  15
HEBRON         CLOUDY    27  12  53 NE10      30.48F WCI  17
HOLDREGE       CLOUDY    27   7  43 E10       30.40F WCI  17
KEARNEY        CLOUDY    25   8  48 E9        30.44  WCI  15
YORK           CLOUDY    23   9  54 CALM      30.49F
$$

NEZ011>018-030>034-042>045-220200-
NORTHEAST NEBRASKA

CITY           SKY/WX    TMP DP  RH WIND       PRES   REMARKS
NORFOLK        MOCLDY    21  12  68 SE7       30.49F WCI  12
ALBION         MOCLDY    21  10  64 SE5       30.49S WCI  14
BLAIR          CLOUDY    24  18  77 NE8       30.53F WCI  15
COLUMBUS       FAIR      21  13  71 E8        30.53F WCI  11
FREMONT        MOCLDY    24  15  69 E5        30.55F WCI  18
TEKAMAH        FAIR      24  14  65 E9        30.57F WCI  14
WAYNE          MOCLDY    19  10  70 E6        30.54F WCI  10
$$

NEZ050>053-065>068-078-088>093-220200-
SOUTHEAST NEBRASKA

CITY           SKY/WX    TMP DP  RH WIND       PRES   REMARKS
LINCOLN        CLOUDY    25  11  55 E10       30.54F WCI  15
OMAHA EPPLEY   MOCLDY    25  14  63 E7        30.56F WCI  17
BEATRICE       CLOUDY    26  15  64 E10       30.50F WCI  16
FALLS CITY     CLOUDY    28  19  69 NE8       30.52F WCI  20
NEBRASKA CITY  CLOUDY    26  20  79 NE9       30.53F WCI  16
PLATTSMOUTH    CLOUDY    25  18  72 NE8       30.54F WCI  17
$$

NEZ044-045-051>053-067-220200-
OMAHA AREA

CITY           SKY/WX    TMP DP  RH WIND       PRES   REMARKS
OMAHA EPPLEY   MOCLDY    25  14  63 E7        30.56F WCI  17
BLAIR          CLOUDY    24  18  77 NE8       30.53F WCI  15
FREMONT        MOCLDY    24  15  69 E5        30.55F WCI  18
MILLARD        CLOUDY    27  14  59 NE7       30.55F WCI  19
OFFUTT AFB     CLOUDY    25  15  66 NE10      30.55F WCI  15
PLATTSMOUTH    CLOUDY    25  18  72 NE8       30.54F WCI  17
WAHOO          CLOUDY    24  15  67 NE8       30.54F WCI  16
$$



USA.gov is the U.S. government's official web portal to all federal, state and local government web resources and services.